Cordoba, Spain

10:17 PM CEST on September 26, 2017 (GMT +0200)
Cordoba

Weather History for LEBA - August, 2013

Change the Weather History Date:

Saturday, August 24, 2013

  Actual Average Record
Temperature  
Mean Temperature 80 °F -  
Max Temperature 97 °F - - ()
Min Temperature 63 °F - - ()
Cooling Degree Days 15    
Growing Degree Days 30 (Base 50)    
Moisture  
Dew Point 52 °F    
Average Humidity 35    
Maximum Humidity 68    
Minimum Humidity 15    
Precipitation  
Precipitation 0.00 in 0.03 in - ()
Sea Level Pressure  
Sea Level Pressure 29.90 in    
Wind  
Wind Speed 4 mph ()    
Max Wind Speed 13 mph    
Max Gust Speed -    
T = Trace of Precipitation, MM = Missing Value Source: Averaged Metar Reports

Daily Weather History Graph

Daily Weather History Graph

Search for Another Location

Airport or City:

Trip Planner

Search our weather history database for the weather conditions in past years. The results will help you decide how hot, cold, wet, or windy it might be!

Date:

Astronomy

Aug. 24, 2013 Rise Set
Actual Time 7:42 AM CEST 9:00 PM CEST
Civil Twilight 7:15 AM CEST 9:27 PM CEST
Nautical Twilight 6:42 AM CEST 10:00 PM CEST
Astronomical Twilight 6:08 AM CEST 10:34 PM CEST
Moon 10:51 PM CEST (8/24) 11:22 AM CEST (8/24)
Length of Visible Light 14h 12m
Length of Day
13h 17m
Waning Gibbous, 86% of the Moon is Illuminated
Aug 24
Waning Gibbous
Aug 28
Last Quarter
Sep 5
New
Sep 12
First Quarter
Sep 19
Full

Hourly Weather History & Observations

Time (CEST) Temp. Heat Index Dew Point Humidity Pressure Visibility Wind Dir Wind Speed Gust Speed Precip Events Conditions
12:00 AM 78.8 °F - 51.8 °F 39% 29.86 in - SSW 3.5 mph - N/A   Clear
7:00 AM 64.4 °F - 53.6 °F 68% 29.92 in - SW 1.2 mph - N/A   Clear
8:00 AM 63 °F - 51 °F 56% 29.93 in 31 mi Calm Calm - -  
8:00 AM 64.4 °F - 51.8 °F 64% 29.92 in - Calm Calm - N/A   Clear
9:00 AM 68.0 °F - 51.8 °F 56% 29.95 in - Calm Calm - N/A   Clear
10:00 AM 75.2 °F - 50.0 °F 41% 29.95 in - Calm Calm - N/A   Clear
11:00 AM 80.6 °F - 51.8 °F 37% 29.95 in - Variable 1.2 mph - N/A   Clear
12:00 PM 84.2 °F 83.0 °F 55.4 °F 37% 29.95 in - West 3.5 mph - N/A   Clear
1:00 PM 87.8 °F 85.7 °F 53.6 °F 31% 29.92 in - West 4.6 mph - N/A   Clear
2:00 PM 92 °F - 50 °F 15% 29.91 in 25 mi West 9.2 mph - -  
2:00 PM 91.4 °F - 51.8 °F 26% 29.92 in - West 9.2 mph - N/A   Clear
3:00 PM 93.2 °F 90.8 °F 53.6 °F 26% 29.89 in - West 10.4 mph - N/A   Clear
4:00 PM 95.0 °F - 51.8 °F 23% 29.89 in - West 10.4 mph - N/A   Clear
5:00 PM 96.8 °F 94.4 °F 53.6 °F 23% 29.86 in - West 11.5 mph - N/A   Clear
6:00 PM 95.0 °F - 51.8 °F 23% 29.86 in - West 12.7 mph - N/A   Clear
7:00 PM 93.2 °F - 50.0 °F 23% 29.83 in - West 10.4 mph - N/A   Clear
8:00 PM 92 °F - 51 °F 16% 29.83 in 25 mi West 10.4 mph - -  
8:00 PM 91.4 °F 89.1 °F 53.6 °F 28% 29.83 in - West 9.2 mph - N/A   Clear
9:00 PM 87.8 °F - 51.8 °F 29% 29.86 in - West 8.1 mph - N/A   Clear